Weather History for The Dalles, OR

Change the Weather History Date:

Friday, March 8, 2013

  Actual Average Record
Temperature  
Mean Temperature 42 °F -  
Max Temperature 57 °F 55 °F 75 °F (2005)
Min Temperature 28 °F 35 °F 24 °F (1976)
Degree Days  
Heating Degree Days 22    
Moisture  
Dew Point 31 °F    
Average Humidity 67    
Maximum Humidity 92    
Minimum Humidity 33    
Precipitation  
Precipitation 0.00 in - - ()
Sea Level Pressure  
Sea Level Pressure 30.09 in    
Wind  
Wind Speed 1 mph (ESE)    
Max Wind Speed 6 mph    
Max Gust Speed -    
Visibility 10 miles    
Events      
Averages and records for this station are not official NWS values.
T = Trace of Precipitation, MM = Missing Value Source: NWS Daily Summary

Daily Weather History Graph

Daily Weather History Graph

Search for Another Location

Airport:

Trip Planner

Search our weather history database for the weather conditions in past years. The results will help you decide how hot, cold, wet, or windy it might be!

Date:

Astronomy

Mar. 08, 2013 Rise Set
Actual Time 6:29 AM PST 6:01 PM PST
Civil Twilight 6:00 AM PST 6:31 PM PST
Nautical Twilight 5:25 AM PST 7:05 PM PST
Astronomical Twilight 4:51 AM PST 7:40 PM PST
Moon 4:25 AM PST (3/8) 2:55 PM PST (3/8)
Length of Visible Light 12h 31m
Length of Day
11h 31m
Waning Crescent, 11% of the Moon is Illuminated
Mar 8
Waning Crescent
Mar 11
New
Mar 19
First Quarter
Mar 27
Full
Apr 2
Last Quarter

Hourly Weather History & Observations

Time (PST) Temp. Windchill Dew Point Humidity Pressure Visibility Wind Dir Wind Speed Gust Speed Precip Events Conditions
12:53 AM 32.0 °F - 28.9 °F 88% 30.06 in 10.0 mi Calm Calm - N/A   Partly Cloudy
1:53 AM 30.9 °F - 28.0 °F 89% 30.06 in 10.0 mi Calm Calm - N/A   Clear
2:53 AM 34.0 °F 31.0 °F 30.0 °F 85% 30.06 in 10.0 mi SE 3.5 mph - N/A   Clear
3:53 AM 28.9 °F - 27.0 °F 92% 30.07 in 10.0 mi Calm Calm - N/A   Scattered Clouds
4:53 AM 30.9 °F - 28.9 °F 92% 30.08 in 10.0 mi Calm Calm - N/A   Clear
5:53 AM 28.9 °F - 27.0 °F 92% 30.09 in 9.0 mi Calm Calm - N/A   Clear
7:53 AM 32.0 °F - 30.0 °F 92% 30.11 in 10.0 mi Calm Calm - N/A   Clear
8:53 AM 36.0 °F - 30.9 °F 82% 30.11 in 10.0 mi Calm Calm - N/A   Clear
9:53 AM 41.0 °F - 33.1 °F 73% 30.10 in 10.0 mi Calm Calm - N/A   Clear
10:53 AM 45.0 °F - 34.0 °F 65% 30.10 in 10.0 mi Calm Calm - N/A   Clear
11:53 AM 50.0 °F - 35.1 °F 57% 30.09 in 10.0 mi Calm Calm - N/A   Clear
12:53 PM 53.1 °F - 30.9 °F 43% 30.07 in 10.0 mi SW 3.5 mph - N/A   Clear
1:53 PM 55.9 °F - 30.9 °F 39% 30.05 in 10.0 mi Calm Calm - N/A   Clear
2:53 PM 57.0 °F - 30.9 °F 37% 30.04 in 10.0 mi Calm Calm - N/A   Clear
3:53 PM 57.9 °F - 30.9 °F 36% 30.05 in 10.0 mi Calm Calm - N/A   Clear
4:53 PM 57.9 °F - 28.9 °F 33% 30.05 in 10.0 mi Calm Calm - N/A   Clear
5:53 PM 54.0 °F - 32.0 °F 43% 30.06 in 10.0 mi ENE 3.5 mph - N/A   Clear
6:53 PM 48.9 °F - 33.1 °F 54% 30.09 in 10.0 mi Calm Calm - N/A   Clear
7:53 PM 44.1 °F - 32.0 °F 63% 30.12 in 10.0 mi Calm Calm - N/A   Clear
8:53 PM 41.0 °F 37.1 °F 32.0 °F 70% 30.15 in 10.0 mi ESE 5.8 mph - N/A   Clear
9:53 PM 41.0 °F - 30.9 °F 67% 30.17 in 10.0 mi Calm Calm - N/A   Clear
10:53 PM 37.0 °F 32.4 °F 28.9 °F 73% 30.19 in 10.0 mi East 5.8 mph - N/A   Clear
11:53 PM 34.0 °F 31.0 °F 28.0 °F 79% 30.21 in 10.0 mi ESE 3.5 mph - N/A   Clear